Location: Utrecht
(52.0907°N, 5.1214°E)
Time: 21:26:42
(UTC+02:00)

AO-7 - Visible Passes

Search period start: 29 June 2022 00:00
Search period end: 09 July 2022 00:00
Orbit: 1439 x 1459 km, 101.9° (Epoch: 29 June)

Date Brightness Start Highest point End Pass type
(mag) Time Alt. Az. Time Alt. Az. Time Alt. Az.
29 Jun ? 04:00:40 10° ENE 04:02:59 11° ENE 04:05:18 10° E visible
04 Jul ? 04:36:53 10° NE 04:42:46 20° E 04:48:37 10° SE visible
06 Jul ? 04:30:05 10° NE 04:35:34 19° E 04:41:01 10° SE visible
08 Jul ? 04:23:21 10° NE 04:28:21 17° E 04:33:19 10° ESE visible
